Miscellaneous Local Product
Issued by NWS Hastings, NE

Home | Current Version | Previous Version | Text Only | Print | Product List | Glossary On
Versions: 1 2 3 4 5 6 7 8 9 10 11 12 13 14 15 16 17 18 19 20 21 22 23 24 25 26 27 28 29 30 31 32 33 34 35 36 37 38 39 40 41 42 43 44 45 46 47 48 49 50
256
AXUS43 KGID 250502
MISGRI

GID CWA HOURLY WEATHER ROUNDUP
NATIONAL WEATHER SERVICE HASTINGS NE
1200 AM CDT WED MAY 25 2016

NOTE: "FAIR" INDICATES FEW OR NO CLOUDS BELOW 12,000 FEET WITH NO
SIGNIFICANT WEATHER AND/OR OBSTRUCTIONS TO VISIBILITY.

...SOUTH CENTRAL NEBRASKA...

CITY           SKY/WX    TMP DP  RH WIND       PRES   REMARKS
GRAND ISLAND   CLOUDY    70  61  73 SE15G23   29.79F
HASTINGS       CLOUDY    70  62  76 SE10G20   29.78F
KEARNEY        CLOUDY    70  61  73 SE14      29.77F
ORD            CLOUDY    68  60  75 SE9       29.77F
YORK           CLOUDY    72  63  73 SE15      29.82F
AURORA         CLOUDY    70  62  76 SE12      29.81F
LEXINGTON      CLOUDY    69  60  75 W8        29.85R
HOLDREGE       CLOUDY    68  61  78 SE10      29.77F
HEBRON         LGT RAIN  71  65  79 SE17G32   29.86R

...NEBRASKA PANHANDLE...

CITY           SKY/WX    TMP DP  RH WIND       PRES   REMARKS
CHADRON        CLOUDY    54  32  43 E13       29.80F
ALLIANCE       CLOUDY    51  49  92 NE15      29.83F
SCOTTSBLUFF    PTCLDY    53  47  79 E14       29.83F
SIDNEY         CLOUDY    55  49  80 E9        29.84R

...WESTERN AND NORTH CENTRAL NEBRASKA...

CITY           SKY/WX    TMP DP  RH WIND       PRES   REMARKS
VALENTINE      TSTM      57  32  38 NW23G41   29.86R
AINSWORTH      CLOUDY    68  57  68 S8        29.80F
ONEILL         PTCLDY    68  57  67 SE8       29.81S
BROKEN BOW     CLOUDY    66  59  78 SE6       29.80S
IMPERIAL       CLOUDY    55  52  89 N5        29.81R
NORTH PLATTE   LGT RAIN  59  53  80 MISG      29.81F
MCCOOK         CLOUDY    66  60  81 N13       29.83R

...EASTERN NEBRASKA...

CITY           SKY/WX    TMP DP  RH WIND       PRES   REMARKS
NORFOLK        CLOUDY    69  57  65 SE12      29.82S
SO SIOUX CITY  CLOUDY    67  62  84 SE8       29.83F
TEKAMAH        CLOUDY    69  61  75 SE12      29.85S
COLUMBUS       CLOUDY    73  55  53 SE12G17   29.84S
ALBION         CLOUDY    70  58  65 SE13      29.80F
OMAHA EPPLEY   CLOUDY    72  63  73 SE10      29.87S
MILLARD        CLOUDY    72  64  77 SE8       29.86S
LINCOLN        CLOUDY    73  63  70 SE13      29.86R
NEBRASKA CITY  CLOUDY    71  64  79 SE8       29.89R
BEATRICE       CLOUDY    73  66  76 SE10G17   29.87R THUNDER
FALLS CITY     CLOUDY    73  66  78 SE7       29.87F

...NORTHERN KANSAS...

CITY           SKY/WX    TMP DP  RH WIND       PRES   REMARKS
GOODLAND       CLEAR     57  54  89 E7        29.76S
HILL CITY      CLOUDY    63  55  75 SE14      29.79R
NORTON         CLEAR     64  52  63 S9        29.76F
PHILLIPSBURG   CLEAR     66  55  68 S6        29.78R
SMITH CENTER   CLEAR     66  52  59 SE13G20   29.79R
HAYS           CLOUDY    55  52  88 SE20G25   29.82R
RUSSELL        CLOUDY    62  56  80 E15       29.77F
CONCORDIA      TSTM      63  57  81 SW21G32   29.93S
SALINA         TSTM      63  60  90 NE12      29.95F FOG
TOPEKA         CLOUDY    73  69  87 SE7       29.88S



USA.gov is the U.S. government's official web portal to all federal, state and local government web resources and services.